Tracking 18793 objects as of 25-September-2017
HD Live streaming from Space Station
objects crossing your sky now

AMC-9 (GE-12)

Track AMC-9 (GE-12) now!
AMC-9 (GE-12) is classified as:


NORAD ID: 27820
Int'l Code: 2003-024A
Perigee: 35,673.9 km
Apogee: 35,981.1 km
Inclination: 0.2 °
Period: 1,437.8 minutes
Semi major axis: 42198 km
RCS: 43.0775 m2 (large)
Launch date: June 6, 2003
Source: SOCIETE EUROPEENNE DES SATELLITES (SES)
Launch site: TYURATAM MISSILE AND SPACE COMPLEX (TTMTR)

Television programmers, government agencies and enterprise networks; 24 Ku-band; CONUS and Mexico.
aabbcc
Your satellite tracking list
Your tracking list is empty





NASA's NSSDC Master Catalog

Two Line Element Set (TLE):
1 27820U 03024A   17268.20396674 -.00000085  00000-0  00000+0 0  9992
2 27820   0.1830  90.2904 0036392 308.0680 293.7442  1.00151475 52377
Source of the keplerian elements: AFSPC